FENGYUN 1C DEB, 31205

Orbit data source: Space-Track

FENGYUN 1C DEB, 31205 is space debris in SSO originally from a launch on Mon, 10 May 1999 UTC launched from the Taiyaun Space Center, China (TSC). Fengyun 1C debris stems from the Chinese weather satellite Fengyun-1C, which was intentionally destroyed by a Chinese anti-satellite missile in 2007. This event dramatically increased the amount of space debris, with thousands of trackable fragments posing hazards to satellites and human spaceflight. The Fengyun 1C debris cloud has become a focal point in discussions about space sustainability and the need for international regulations to prevent the creation of new debris.

Loading next visibility...
Identifier
31205, 1999-025BKK
Orbit
SSO
Country
Flag of CNCN / PRC
Related business
Manufacturer
Unknown
Mission
Spacecraft
Bus & Motor
Unknown
Mass
Unknown
Launch date (UTC)
1999-05-10 (27 years ago)
Launch vehicle
Unknown
Launch site
Taiyaun Space Center, China (TSC)
Object type
Payload
Rocket body
Debris
Shape & HBR
Unknown shape, 0.1 m
Radar Cross Section
Small (<0.1 m²)

Expand to show TLE details & history
Last TLE update: 1 day ago

TLE from 1 day ago
0 FENGYUN 1C DEB
1 31205U 99025BKK 26167.55418459  .00000113  00000-0  62079-4 0  9992
2 31205  99.2312 274.9314 0162128  27.4015 333.5597 14.24083217998551
Epoch: 2026-06-16T13:18Z
TLE epoch observation values (Epoch: 2026-06-16T13:18:01.548Z)
Latitude
-0.00007°
Longitude
170.60041°
Altitude
710.47 km
Speed
7.555 km/s
True Right ascension
18h 19m 43s
True Declination
0° 00' 00"
Sunlit
Object was in full shadow at epoch
Visualization orbit readout
Latitude
Unknown
Longitude
Unknown
Altitude
Unknown
Speed
Unknown
Apparent Right ascension
Unknown
Apparent Declination
Unknown
Sunlit
N/A
Visualization observer readout
Local Sidereal Time
09:33:50
Azimuth
Unknown
Elevation
Unknown
Doppler factor
Unknown
Orbital elements
Apogee altitude
925.274 km
Perigee altitude
692.235 km
Semi-major axis
7,186.891 km
Eccentricity
0.01621
Inclination
99.2312°
RAAN
274.9314°
Arg. of periapsis
27.4015°
True anomaly
332.71722°
Mean anomaly
333.5597°
Eccentric anomaly
333.14°
Mean motion
3.56231 °/min
Orbital period
101.06 mins
BSTAR
0.000062079
Loading maneuver chart data...
Computing Atmospheric mass density...

Documentation

Showing up to 5 results
|